Home   Weather   Bijar   Past weeks

Flag for Iran Past Weather in Bijar, Iran — Yesterday and Last 2 Weeks

Now
72 °F

Scattered clouds.


Feels Like: 76 °F
Forecast: 48 / 72 °F
Wind: 14 mph from Northeast

Location: Sanandaj Airport

Current Time: Oct 1, 2016 at 5:25:53 PM

Latest Report: Oct 1, 2016 at 4:30 PM


Visibility: N/A

Pressure: 30.07 "Hg (24.06 "Hg at 1927m altitude)

Humidity: 25%

Dew Point: 34 °F

Location of BijarLocation

Past Weather in Bijar — Graph

°F

Bijar Temperature Yesterday

Maximum temperature yesterday: 79 °F (at 3:30 PM)
Minimum temperature yesterday: 43 °F (at 5:23 AM)
Average temperature yesterday: 62 °F

High & Low Weather Summary for the Past Weeks

 TemperatureHumidityPressure
High91 °F (Sep 17, 2:30 PM)76% (Sep 25, 6:30 AM)30.18 "Hg (Sep 25, 6:30 AM)
Low39 °F (Sep 26, 6:30 AM)7% (Sep 25, 4:30 PM)29.80 "Hg (Sep 24, 4:23 AM)
Average66 °F30%30.02 "Hg
* Reported Sep 16 6:21 PM — Oct 1 4:30 PM, Bijar, Weather by CustomWeather, © 2016

Note: Actual official high and low records may vary slightly from our data, if they occured in-between our weather recording intervals... More about our weather records

Advertising

Bijar Weather History for the Previous 24 Hours

Scroll right to see more
 ConditionsComfort  
Time TempWeatherWind HumidityBarometerVisibility
4:30 PM
Sat, Oct 1
72 °FScattered clouds.14 mph25%30.07 "HgN/A
3:30 PM72 °FScattered clouds.12 mph27%30.07 "HgN/A
2:30 PM72 °FScattered clouds.12 mph27%30.07 "HgN/A
1:30 PM68 °FScattered clouds.14 mph30%30.09 "HgN/A
12:30 PM64 °FScattered clouds.14 mph34%30.09 "HgN/A
11:30 AM66 °FScattered clouds.14 mph32%30.09 "HgN/A
10:30 AM61 °FScattered clouds.14 mph42%30.12 "HgN/A
9:30 AM59 °FScattered clouds.16 mph45%30.12 "HgN/A
9:00 AM59 °FScattered clouds.14 mph45%30.12 "HgN/A
8:30 AM57 °FScattered showers. Scattered clouds.14 mph51%30.12 "HgN/A
8:00 AM57 °FScattered clouds.12 mph48%30.09 "HgN/A
7:30 AM55 °FScattered clouds.16 mph51%30.09 "HgN/A
7:00 AM55 °FScattered clouds.16 mph51%30.09 "HgN/A
6:30 AM55 °FPassing clouds.14 mph51%30.07 "HgN/A
5:22 AM55 °FPassing clouds.16 mph51%30.07 "HgN/A
4:24 AM57 °FPassing clouds.14 mph51%30.04 "HgN/A
2:23 AM57 °FClear.12 mph48%30.01 "Hg10 mi
1:24 AM59 °FClear.14 mph45%30.01 "Hg10 mi
12:23 AM59 °FClear.20 mph45%30.01 "Hg10 mi
11:25 PM
Fri, Sep 30
61 °FClear.14 mph42%29.98 "Hg10 mi
10:22 PM63 °FClear.16 mph34%29.98 "Hg10 mi
9:24 PM63 °FClear.7 mph27%29.95 "Hg10 mi
8:21 PM66 °FClear.9 mph19%29.92 "Hg10 mi
7:24 PM70 °FClear.2 mph16%29.89 "Hg10 mi
6:24 PM72 °FPassing clouds.9 mph14%29.86 "HgN/A
5:20 PM79 °FPassing clouds.5 mph10%29.83 "HgN/A
Weather by CustomWeather, © 2016

See weather overviewHow to use our weather pages